• In Czech Republic
  • List of Countries
  • For 7 days
  • Water Temperature
  • Satellite Maps
  • Weather Map
  • Weather Widgets
  • user-avatar
    Login

    Hourly Weather Kisumu

    Today, 25 September, Tuesday

    Time Temperature Precipitation Wind Pressure Humidity
    00:00 +23°C° 0 mm 2 mps 664 mmHg 66%
    01:00 +21°C° 0 mm 2 mps 664 mmHg 67%
    02:00 +21°C° 0 mm 2 mps 663 mmHg 68%
    03:00 +20°C° 0 mm 2 mps 664 mmHg 69%
    04:00 +20°C° 0 mm 2 mps 664 mmHg 70%
    05:00 +19°C° 0 mm 2 mps 664 mmHg 71%
    06:00 +23°C° 0 mm 2 mps 664 mmHg 65%
    07:00 +25°C° 0 mm 3 mps 665 mmHg 58%
    08:00 +27°C° 0 mm 3 mps 666 mmHg 52%
    09:00 +30°C° 0 mm 2 mps 666 mmHg 46%
    10:00 +32°C° 0 mm 1 mps 666 mmHg 40%
    11:00 +34°C° 0 mm 1 mps 667 mmHg 34%
    12:00 +33°C° 0 mm 1 mps 666 mmHg 36%
    13:00 +32°C° 0 mm 1 mps 665 mmHg 39%
    14:00 +32°C° 0 mm 1 mps 664 mmHg 37%
    15:00 +30°C° 0 mm 1 mps 664 mmHg 42%
    16:00 +29°C° 0 mm 2 mps 664 mmHg 47%
    17:00 +27°C° 0 mm 2 mps 664 mmHg 52%
    18:00 +27°C° 0 mm 1 mps 664 mmHg 54%
    19:00 +26°C° 0 mm 1 mps 664 mmHg 56%
    20:00 +25°C° 0 mm 1 mps 665 mmHg 58%
    21:00 +25°C° 0.1 mm 1 mps 665 mmHg 58%
    22:00 +24°C° 0.1 mm 1 mps 665 mmHg 59%
    23:00 +24°C° 0.1 mm 1 mps 665 mmHg 59%

    Tomorrow, 26 September, Wednesday

    Time Temperature Precipitation Wind Pressure Humidity
    00:00 +23°C° 0 mm 2 mps 664 mmHg 60%
    01:00 +21°C° 0 mm 2 mps 664 mmHg 62%
    02:00 +20°C° 0 mm 2 mps 663 mmHg 63%
    03:00 +20°C° 0 mm 2 mps 663 mmHg 65%
    04:00 +19°C° 0 mm 2 mps 664 mmHg 66%
    05:00 +19°C° 0 mm 2 mps 664 mmHg 67%
    06:00 +21°C° 0 mm 2 mps 664 mmHg 61%
    07:00 +25°C° 0 mm 2 mps 665 mmHg 55%
    08:00 +27°C° 0 mm 2 mps 666 mmHg 48%
    09:00 +29°C° 0 mm 1 mps 666 mmHg 43%
    10:00 +32°C° 0 mm 1 mps 667 mmHg 38%
    11:00 +34°C° 0 mm 1 mps 667 mmHg 33%
    12:00 +33°C° 0 mm 1 mps 666 mmHg 35%
    13:00 +32°C° 0 mm 2 mps 665 mmHg 37%
    14:00 +32°C° 0 mm 2 mps 664 mmHg 39%
    15:00 +30°C° 0.2 mm 2 mps 664 mmHg 47%
    16:00 +28°C° 0.2 mm 2 mps 663 mmHg 54%
    17:00 +26°C° 0.2 mm 2 mps 663 mmHg 62%
    18:00 +25°C° 0.2 mm 2 mps 663 mmHg 65%
    19:00 +25°C° 0.2 mm 2 mps 664 mmHg 69%
    20:00 +24°C° 0.2 mm 2 mps 664 mmHg 73%
    21:00 +23°C° 0 mm 2 mps 664 mmHg 73%
    22:00 +23°C° 0 mm 2 mps 664 mmHg 74%
    23:00 +23°C° 0 mm 2 mps 665 mmHg 75%

    Day after tomorrow, 27 September, Thursday

    Time Temperature Precipitation Wind Pressure Humidity
    00:00 +21°C° 0 mm 2 mps 664 mmHg 74%
    01:00 +20°C° 0 mm 2 mps 663 mmHg 74%
    02:00 +20°C° 0 mm 2 mps 663 mmHg 74%
    03:00 +19°C° 0 mm 2 mps 663 mmHg 75%
    04:00 +19°C° 0 mm 2 mps 663 mmHg 75%
    05:00 +19°C° 0 mm 2 mps 663 mmHg 75%
    06:00 +23°C° 0 mm 2 mps 664 mmHg 67%
    07:00 +25°C° 0 mm 2 mps 665 mmHg 59%
    08:00 +27°C° 0 mm 2 mps 666 mmHg 52%
    09:00 +30°C° 0 mm 2 mps 666 mmHg 45%
    10:00 +32°C° 0 mm 1 mps 667 mmHg 38%
    11:00 +35°C° 0 mm 1 mps 667 mmHg 31%
    12:00 +34°C° 0 mm 1 mps 666 mmHg 35%
    13:00 +32°C° 0 mm 1 mps 664 mmHg 38%
    14:00 +31°C° 0 mm 2 mps 663 mmHg 42%
    15:00 +29°C° 0.6 mm 2 mps 663 mmHg 51%
    16:00 +27°C° 0.6 mm 2 mps 662 mmHg 61%
    17:00 +24°C° 0.6 mm 3 mps 662 mmHg 70%
    18:00 +24°C° 0.5 mm 2 mps 663 mmHg 73%
    19:00 +24°C° 0.5 mm 2 mps 664 mmHg 76%
    20:00 +23°C° 0.5 mm 1 mps 664 mmHg 78%
    21:00 +23°C° 0.1 mm 1 mps 664 mmHg 79%
    22:00 +23°C° 0.1 mm 1 mps 664 mmHg 80%
    23:00 +21°C° 0.1 mm 0 mps 665 mmHg 81%

    28 September, Friday

    Time Temperature Precipitation Wind Pressure Humidity
    00:00 +22°C° 0 mm 1 mps 664 mmHg 82%
    01:00 +21°C° 0 mm 1 mps 663 mmHg 83%
    02:00 +21°C° 0 mm 1 mps 662 mmHg 85%
    03:00 +19°C° 0 mm 2 mps 662 mmHg 84%
    04:00 +19°C° 0 mm 2 mps 662 mmHg 83%
    05:00 +19°C° 0 mm 2 mps 663 mmHg 82%
    06:00 +21°C° 0 mm 2 mps 664 mmHg 73%
    07:00 +25°C° 0 mm 2 mps 664 mmHg 64%
    08:00 +27°C° 0 mm 2 mps 665 mmHg 55%
    09:00 +30°C° 0 mm 2 mps 666 mmHg 48%
    10:00 +32°C° 0 mm 1 mps 666 mmHg 41%
    11:00 +35°C° 0 mm 1 mps 666 mmHg 34%
    12:00 +33°C° 0.2 mm 1 mps 665 mmHg 39%
    13:00 +32°C° 0.2 mm 2 mps 664 mmHg 44%
    14:00 +30°C° 0.2 mm 2 mps 663 mmHg 49%
    15:00 +28°C° 1 mm 2 mps 662 mmHg 58%
    16:00 +27°C° 1 mm 2 mps 662 mmHg 67%
    17:00 +25°C° 1 mm 2 mps 662 mmHg 76%
    18:00 +24°C° 1.5 mm 2 mps 662 mmHg 79%
    19:00 +23°C° 1.5 mm 2 mps 663 mmHg 82%
    20:00 +21°C° 1.5 mm 2 mps 663 mmHg 85%
    21:00 +21°C° 0.1 mm 2 mps 664 mmHg 86%
    22:00 +21°C° 0.1 mm 2 mps 664 mmHg 86%
    23:00 +21°C° 0.1 mm 2 mps 664 mmHg 86%

    29 September, Saturday

    Time Temperature Precipitation Wind Pressure Humidity
    00:00 +20°C° 0 mm 2 mps 663 mmHg 86%
    01:00 +20°C° 0 mm 2 mps 662 mmHg 86%
    02:00 +19°C° 0 mm 3 mps 662 mmHg 86%
    03:00 +19°C° 0 mm 2 mps 662 mmHg 85%
    04:00 +19°C° 0 mm 2 mps 662 mmHg 84%
    05:00 +19°C° 0 mm 2 mps 663 mmHg 82%
    06:00 +21°C° 0 mm 2 mps 664 mmHg 74%
    07:00 +24°C° 0 mm 2 mps 665 mmHg 65%
    08:00 +27°C° 0 mm 2 mps 666 mmHg 56%
    09:00 +29°C° 0 mm 2 mps 666 mmHg 48%
    10:00 +32°C° 0 mm 1 mps 666 mmHg 41%
    11:00 +34°C° 0 mm 1 mps 666 mmHg 33%
    12:00 +34°C° 0 mm 1 mps 665 mmHg 34%
    13:00 +34°C° 0 mm 2 mps 664 mmHg 35%
    14:00 +34°C° 0 mm 3 mps 663 mmHg 36%
    15:00 +31°C° 0 mm 2 mps 663 mmHg 43%
    16:00 +29°C° 0 mm 2 mps 663 mmHg 49%
    17:00 +28°C° 0 mm 2 mps 663 mmHg 56%
    18:00 +27°C° 0.4 mm 2 mps 663 mmHg 60%
    19:00 +26°C° 0.4 mm 2 mps 664 mmHg 64%
    20:00 +25°C° 0.4 mm 1 mps 664 mmHg 68%
    21:00 +24°C° 0.1 mm 2 mps 664 mmHg 69%
    22:00 +24°C° 0.1 mm 2 mps 664 mmHg 69%
    23:00 +23°C° 0.1 mm 2 mps 664 mmHg 70%

    30 September, Sunday

    Time Temperature Precipitation Wind Pressure Humidity
    00:00 +21°C° 0 mm 2 mps 663 mmHg 71%
    01:00 +21°C° 0 mm 2 mps 663 mmHg 72%
    02:00 +20°C° 0 mm 2 mps 662 mmHg 73%
    03:00 +19°C° 0 mm 2 mps 663 mmHg 73%
    04:00 +19°C° 0 mm 2 mps 663 mmHg 73%
    05:00 +19°C° 0 mm 2 mps 663 mmHg 73%
    06:00 +21°C° 0 mm 2 mps 664 mmHg 66%
    07:00 +25°C° 0 mm 2 mps 665 mmHg 59%
    08:00 +27°C° 0 mm 2 mps 666 mmHg 52%
    09:00 +29°C° 0 mm 2 mps 666 mmHg 45%
    10:00 +32°C° 0 mm 1 mps 666 mmHg 38%
    11:00 +34°C° 0 mm 1 mps 666 mmHg 32%
    12:00 +34°C° 0 mm 2 mps 665 mmHg 34%
    13:00 +32°C° 0 mm 2 mps 664 mmHg 36%
    14:00 +33°C° 0 mm 3 mps 662 mmHg 39%
    15:00 +30°C° 0 mm 2 mps 662 mmHg 45%
    16:00 +28°C° 0 mm 2 mps 662 mmHg 51%
    17:00 +27°C° 0 mm 2 mps 662 mmHg 57%
    18:00 +26°C° 0.4 mm 2 mps 663 mmHg 62%
    19:00 +25°C° 0.4 mm 2 mps 663 mmHg 67%
    20:00 +24°C° 0.4 mm 2 mps 664 mmHg 71%
    21:00 +23°C° 0.3 mm 2 mps 664 mmHg 72%
    22:00 +23°C° 0.3 mm 2 mps 664 mmHg 73%
    23:00 +22°C° 0.3 mm 1 mps 664 mmHg 73%
    Show more